Weather History for KFGN - March, 2013

Change the Weather History Date:

Thursday, March 14, 2013

  Actual Average Record
Temperature  
Mean Temperature 20 °F -  
Max Temperature 33 °F 24 °F 48 °F (2012)
Min Temperature 6 °F 6 °F -16 °F (2002)
Degree Days  
Heating Degree Days 46    
Moisture  
Dew Point 16 °F    
Average Humidity 79    
Maximum Humidity 92    
Minimum Humidity 69    
Precipitation  
Precipitation 0.00 in - - ()
Sea Level Pressure  
Sea Level Pressure 30.04 in    
Wind  
Wind Speed 7 mph (West)    
Max Wind Speed 22 mph    
Max Gust Speed -    
Visibility 10 miles    
Events      
Averages and records for this station are not official NWS values.
T = Trace of Precipitation, MM = Missing Value Source: NWS Daily Summary

Daily Weather History Graph

Daily Weather History Graph

Search for Another Location

Airport or City:

Trip Planner

Search our weather history database for the weather conditions in past years. The results will help you decide how hot, cold, wet, or windy it might be!

Date:

Astronomy

Mar. 14, 2013 Rise Set
Actual Time 7:34 AM CDT 7:23 PM CDT
Civil Twilight 7:02 AM CDT 7:55 PM CDT
Nautical Twilight 6:25 AM CDT 8:32 PM CDT
Astronomical Twilight 5:47 AM CDT 9:10 PM CDT
Moon 8:29 AM CDT (3/14) 11:03 PM CDT (3/14)
Length of Visible Light 12h 52m
Length of Day
11h 49m
Waxing Crescent, 9% of the Moon is Illuminated
Mar 14
Waxing Crescent
Mar 19
First Quarter
Mar 27
Full
Apr 2
Last Quarter
Apr 10
New

Hourly Weather History & Observations

Time (CDT) Temp. Windchill Dew Point Humidity Pressure Visibility Wind Dir Wind Speed Gust Speed Precip Events Conditions
12:13 AM 15.8 °F - 8.6 °F 73% 30.11 in 10.0 mi Calm Calm - N/A   Overcast
12:33 AM 15.8 °F 8.6 °F 8.6 °F 73% 30.10 in 10.0 mi ESE 4.6 mph - N/A   Overcast
12:54 AM 15.8 °F 8.6 °F 8.6 °F 73% 30.10 in 10.0 mi SE 4.6 mph - N/A   Overcast
1:13 AM 14.0 °F 2.9 °F 6.8 °F 73% 30.09 in 10.0 mi SSE 8.1 mph - N/A   Mostly Cloudy
1:33 AM 10.4 °F -2.4 °F 6.8 °F 85% 30.07 in 10.0 mi SSE 9.2 mph - N/A   Mostly Cloudy
1:53 AM 12.2 °F -0.2 °F 6.8 °F 79% 30.07 in 10.0 mi SSE 9.2 mph - N/A   Scattered Clouds
2:13 AM 12.2 °F -0.2 °F 6.8 °F 79% 30.07 in 10.0 mi SSE 9.2 mph - N/A   Clear
2:34 AM 10.4 °F -1.5 °F 6.8 °F 85% 30.06 in 10.0 mi SSE 8.1 mph - N/A   Clear
2:53 AM 8.6 °F -3.7 °F 3.2 °F 79% 30.06 in 10.0 mi SSE 8.1 mph - N/A   Clear
3:13 AM 12.2 °F - 6.8 °F 79% 30.07 in 10.0 mi Calm Calm - N/A   Clear
3:34 AM 10.4 °F - 6.8 °F 85% 30.08 in 10.0 mi Calm Calm - N/A   Clear
4:13 AM 12.2 °F 6.1 °F 6.8 °F 79% 30.07 in 10.0 mi SE 3.5 mph - N/A   Scattered Clouds
4:34 AM 10.4 °F -0.4 °F 5.0 °F 79% 30.06 in 10.0 mi SE 6.9 mph - N/A   Scattered Clouds
4:53 AM 6.8 °F -2.0 °F 1.4 °F 79% 30.06 in 10.0 mi SSE 4.6 mph - N/A   Mostly Cloudy
5:13 AM 10.4 °F 0.8 °F 6.8 °F 85% 30.05 in 10.0 mi SSE 5.8 mph - N/A   Mostly Cloudy
5:34 AM 8.6 °F - 3.2 °F 79% 30.06 in 10.0 mi Calm Calm - N/A   Overcast
5:53 AM 10.4 °F 4.0 °F 6.8 °F 85% 30.05 in 10.0 mi SSE 3.5 mph - N/A   Overcast
6:13 AM 10.4 °F -0.4 °F 8.6 °F 92% 30.04 in 10.0 mi SSE 6.9 mph - N/A   Overcast
6:34 AM 14.0 °F 2.0 °F 10.4 °F 86% 30.02 in 10.0 mi SSE 9.2 mph - N/A   Overcast
6:53 AM 15.8 °F 5.1 °F 10.4 °F 79% 30.02 in 10.0 mi SSE 8.1 mph - N/A   Overcast
7:13 AM 17.6 °F 8.2 °F 12.2 °F 79% 30.02 in 10.0 mi SSE 6.9 mph - N/A   Overcast
7:33 AM 19.4 °F 10.4 °F 15.8 °F 86% 30.02 in 10.0 mi South 6.9 mph - N/A   Overcast
7:53 AM 19.4 °F 9.5 °F 15.8 °F 86% 30.02 in 10.0 mi South 8.1 mph - N/A   Overcast
8:13 AM 19.4 °F 9.5 °F 15.8 °F 86% 30.03 in 10.0 mi South 8.1 mph - N/A   Overcast
8:34 AM 21.2 °F - 17.6 °F 86% 30.04 in 10.0 mi Calm Calm - N/A   Overcast
9:13 AM 21.2 °F 16.4 °F 17.6 °F 86% 30.03 in 10.0 mi South 3.5 mph - N/A   Overcast
9:34 AM 21.2 °F - 17.6 °F 86% 30.05 in 10.0 mi Calm Calm - N/A   Overcast
9:53 AM 21.2 °F - 17.6 °F 86% 30.05 in 10.0 mi Calm Calm - N/A   Overcast
10:14 AM 24.8 °F 20.5 °F 19.4 °F 80% 30.05 in 10.0 mi SW 3.5 mph - N/A   Overcast
10:33 AM 26.6 °F 19.1 °F 19.4 °F 74% 30.02 in 10.0 mi SSW 6.9 mph - N/A   Overcast
10:54 AM 26.6 °F 18.2 °F 19.4 °F 74% 30.02 in 10.0 mi SW 8.1 mph - N/A   Overcast
11:13 AM 26.6 °F 17.5 °F 21.2 °F 80% 30.02 in 10.0 mi SW 9.2 mph - N/A   Overcast
11:33 AM 28.4 °F 19.7 °F 23.0 °F 80% 30.00 in 10.0 mi SW 9.2 mph - N/A   Overcast
11:53 AM 28.4 °F 19.7 °F 23.0 °F 80% 30.01 in 10.0 mi WSW 9.2 mph - N/A   Overcast
12:13 PM 30.2 °F 22.6 °F 23.0 °F 75% 30.01 in 10.0 mi WSW 8.1 mph - N/A   Overcast
12:33 PM 30.2 °F 21.9 °F 24.8 °F 80% 30.02 in 10.0 mi West 9.2 mph - N/A   Overcast
12:53 PM 30.2 °F 22.6 °F 24.8 °F 80% 30.02 in 10.0 mi WNW 8.1 mph - N/A   Overcast
1:13 PM 30.2 °F 20.2 °F 24.8 °F 80% 30.02 in 10.0 mi WNW 12.7 mph - N/A   Overcast
1:33 PM 30.2 °F 20.8 °F 24.8 °F 80% 30.01 in 10.0 mi NW 11.5 mph - N/A   Overcast
1:53 PM 30.2 °F 21.3 °F 24.8 °F 80% 30.01 in 10.0 mi NW 10.4 mph - N/A   Overcast
2:13 PM 30.2 °F 21.9 °F 24.8 °F 80% 30.00 in 10.0 mi WNW 9.2 mph - N/A   Overcast
2:33 PM 32.0 °F 26.4 °F 26.6 °F 80% 29.99 in 10.0 mi West 5.8 mph - N/A   Overcast
2:53 PM 33.8 °F 24.8 °F 26.6 °F 75% 29.99 in 10.0 mi West 12.7 mph - N/A   Overcast
3:13 PM 33.8 °F 25.3 °F 26.6 °F 75% 29.99 in 10.0 mi West 11.5 mph - N/A   Overcast
3:33 PM 33.8 °F 26.4 °F 26.6 °F 75% 29.99 in 10.0 mi West 9.2 mph - N/A   Overcast
3:53 PM 33.8 °F 27.7 °F 26.6 °F 75% 29.98 in 10.0 mi WNW 6.9 mph - N/A   Overcast
4:13 PM 33.8 °F 24.8 °F 26.6 °F 75% 29.98 in 10.0 mi WNW 12.7 mph - N/A   Overcast
4:54 PM 33.8 °F 23.9 °F 26.6 °F 75% 29.99 in 10.0 mi West 15.0 mph - N/A   Overcast
5:13 PM 33.8 °F 22.2 °F 26.6 °F 75% 30.00 in 10.0 mi NNW 20.7 mph - N/A   Overcast
5:33 PM 33.8 °F 22.8 °F 24.8 °F 70% 30.01 in 10.0 mi NNW 18.4 mph - N/A   Overcast
5:54 PM 32.0 °F 21.6 °F 24.8 °F 75% 30.01 in 10.0 mi NNW 15.0 mph - N/A   Overcast
6:13 PM 30.2 °F 17.1 °F 21.2 °F 69% 30.02 in 10.0 mi NW 21.9 mph - N/A   Overcast
6:33 PM 30.2 °F 19.3 °F 23.0 °F 75% 30.02 in 10.0 mi NNW 15.0 mph - N/A   Overcast
6:54 PM 28.4 °F 16.6 °F 21.2 °F 74% 30.03 in 10.0 mi NNW 16.1 mph - N/A   Light Freezing Rain
7:13 PM 28.4 °F 15.1 °F 19.4 °F 69% 30.05 in 10.0 mi NNW 20.7 mph - N/A   Overcast
7:33 PM 26.6 °F 13.1 °F 21.2 °F 80% 30.05 in 10.0 mi NNW 19.6 mph - N/A   Overcast
7:54 PM 24.8 °F 11.5 °F 19.4 °F 80% 30.05 in 10.0 mi NNW 17.3 mph - N/A   Overcast
8:13 PM 24.8 °F 11.1 °F 19.4 °F 80% 30.05 in 10.0 mi NNW 18.4 mph - N/A   Overcast
8:54 PM 23.0 °F 10.6 °F 17.6 °F 80% 30.06 in 10.0 mi NNW 13.8 mph - N/A   Scattered Clouds
9:13 PM 23.0 °F 10.6 °F 17.6 °F 80% 30.07 in 10.0 mi NNW 13.8 mph - N/A   Clear
9:33 PM 21.2 °F 8.3 °F 15.8 °F 80% 30.07 in 10.0 mi NNW 13.8 mph - N/A   Clear
9:53 PM 19.4 °F 6.0 °F 14.0 °F 80% 30.07 in 10.0 mi NNW 13.8 mph - N/A   Clear
10:13 PM 17.6 °F 5.7 °F 12.2 °F 79% 30.08 in 10.0 mi NW 10.4 mph - N/A   Clear
10:53 PM 17.6 °F 5.7 °F 12.2 °F 79% 30.08 in 10.0 mi NNW 10.4 mph - N/A   Mostly Cloudy
11:13 PM 19.4 °F 6.6 °F 12.2 °F 74% 30.08 in 10.0 mi NNW 12.7 mph - N/A   Overcast
11:34 PM 17.6 °F 2.7 °F 12.2 °F 79% 30.09 in 10.0 mi NNW 16.1 mph - N/A   Overcast
11:53 PM 17.6 °F 2.7 °F 12.2 °F 79% 30.08 in 10.0 mi NNW 16.1 mph - N/A   Scattered Clouds